Other Surface Observations
Issued by NWS Upton, NY

Current Version | Previous Version | Text Only | Print | Product List | Glossary Off
Versions: 1 2 3 4 5 6 7 8 9 10 11 12 13 14 15 16 17 18 19 20 21 22 23 24 25 26 27 28 29 30 31 32 33 34 35 36 37 38 39 40 41 42 43 44 45 46 47 48 49 50
000 SXUS51 KOKX 271657 OSOOKX NEW YORK CITY METROPOLITAN WEATHER ROUNDUP NATIONAL WEATHER SERVICE NEW YORK NY 1200 PM EST TUE JAN 27 2015 CITY SKY/WX TMP DP RH WIND PRES REMARKS CENTRAL PARK CLOUDY 27 18 69 N10G22 29.69F HAZE WCI 17 LAGUARDIA APRT LGT SNOW 24 18 77 N15 29.67F WCI 11 KENNEDY INTL LGT SNOW 24 17 74 N20G31 29.68S BLWGSNOWWCI 10 NEWARK/LIBERTY LGT SNOW 27 20 75 NW12 29.69F WCI 17 TETERBORO APRT LGT SNOW 24 16 71 NW15G23 29.68F FOG WCI 11 BNX BOT. GARD. N/A N/A N/A N/A NW8 29.70R >>>>>>>>>>>>>>>>>>>>>>>>>>>>>>>>> KEY <<<<<<<<<<<<<<<<<<<<<<<<<<<<<<< > SKY/WX - SKY CONDITION/ : R : WCI - WIND CHILL INDEX < > PRESENT WEATHER : E : VSB - VISIBILITY IN MILES < > TMP - TEMPERATURE IN DEG F : M : HX - HEAT INDEX < > DP - DEW POINT TEMPERATURE : A : TC - TEMPERATURE IN < > RH - RELATIVE HUMIDITY : R : CELSIUS < > WIND - DIRECTION/SPEED (MPH) : K : VRB - VARIABLE WIND DIR < > PRES - PRESSURE (IN HG) : S : < >>>>>>>>>>>>>>>>>>>>>>>>>>>>>>>>> KEY <<<<<<<<<<<<<<<<<<<<<<<<<<<<<<<

USA.gov is the U.S. government's official web portal to all federal, state and local government web resources and services.